Location: Unspecified
(0.0000°N, 0.0000°E)
Time: 17:04:15
(UTC+00:00)

Vanguard 1 Rocket - Pass Details

Date: 12 December 2017
Orbit: 653 x 4224 km, 34.3° (Epoch: 23 June)

Event Time Altitude Azimuth Distance (km) Brightness Sun altitude
Exits shadow 04:06:56 21° 265° (W) 5,809 11.0 -24.4°
Maximum altitude 04:18:33 34° 221° (SW) 4,090 10.5 -21.8°
Drops below altitude 10° 04:30:10 10° 159° (SSE) 4,390 11.5 -19.1°
Sets 04:33:26 0° 149° (SSE) 4,963 12.1 -18.4°
